Home   Weather   Leverkusen   Past weeks

Flag for Germany Past Weather in Leverkusen, North Rhine-Westphalia, Germany — Yesterday and Last 2 Weeks

Now
32 °F

Passing clouds.


Feels Like: 27 °F
Forecast: 21 / 33 °F
Wind: 5 mph from Southeast

Location: Koeln / Bonn

Current Time: Jan 24, 2017 at 10:44:04 pm

Latest Report: Jan 24, 2017 at 10:20 pm


Visibility: N/A

Pressure: 30.45 "Hg

Humidity: 80%

Dew Point: 27 °F

Location of LeverkusenLocation

Past Weather in Leverkusen — Graph

°F

Leverkusen Temperature Yesterday

Maximum temperature yesterday: 30 °F (at 4:20 pm)
Minimum temperature yesterday: 14 °F (at 4:50 am)
Average temperature yesterday: 24 °F

High & Low Weather Summary for the Past Weeks

 TemperatureHumidityPressure
High46 °F (Jan 11, 4:20 pm)100% (Jan 10, 1:50 am)30.69 "Hg (Jan 10, 1:50 am)
Low12 °F (Jan 18, 7:20 am)42% (Jan 20, 1:20 pm)28.97 "Hg (Jan 13, 1:20 am)
Average31 °F84%30.19 "Hg
* Reported Jan 9 9:20 pm — Jan 24 9:20 pm, Leverkusen, Weather by CustomWeather, © 2017

Note: Actual official high and low records may vary slightly from our data, if they occured in-between our weather recording intervals... More about our weather records

Advertising

Leverkusen Weather History for the Previous 24 Hours

Scroll right to see more
 ConditionsComfort  
Time TempWeatherWind HumidityBarometerVisibility
9:20 pm
Tue, Jan 24
32 °FPassing clouds.3 mph80%30.42 "HgN/A
8:50 pm32 °FPassing clouds.5 mph80%30.42 "HgN/A
8:20 pm32 °FPassing clouds.2 mph87%30.42 "HgN/A
7:50 pm32 °FPassing clouds.2 mph87%30.42 "HgN/A
7:20 pm32 °FPassing clouds.2 mph87%30.42 "HgN/A
6:50 pm32 °FPassing clouds.2 mph80%30.42 "HgN/A
6:20 pm32 °FPassing clouds.No wind87%30.39 "HgN/A
5:50 pm32 °FMostly cloudy.1 mph80%30.39 "HgN/A
5:20 pm34 °FPassing clouds.1 mph75%30.39 "HgN/A
4:50 pm34 °FPartly sunny.1 mph75%30.39 "HgN/A
4:20 pm34 °FPartly sunny.2 mph75%30.39 "HgN/A
3:50 pm34 °FPartly sunny.2 mph75%30.39 "HgN/A
3:20 pm34 °FPartly sunny.2 mph75%30.39 "HgN/A
2:50 pm34 °FPartly sunny.3 mph75%30.36 "HgN/A
2:20 pm34 °FPartly sunny.2 mph75%30.36 "HgN/A
1:50 pm34 °FPartly sunny.1 mph75%30.36 "HgN/A
1:20 pm36 °FPartly sunny.1 mph70%30.36 "HgN/A
12:50 pm34 °FPartly sunny.2 mph81%30.39 "HgN/A
12:20 pm32 °FPartly sunny.3 mph80%30.39 "HgN/A
11:50 am32 °FPartly sunny.2 mph80%30.39 "HgN/A
11:20 am32 °FOvercast.2 mph80%30.39 "HgN/A
10:50 am30 °FPartly sunny.6 mph86%30.39 "HgN/A
10:20 am30 °FPartly sunny.2 mph86%30.36 "HgN/A
9:50 am30 °FPartly sunny.3 mph86%30.36 "HgN/A
9:20 am28 °FOvercast.No wind93%30.36 "HgN/A
8:50 am28 °FOvercast.2 mph93%30.36 "HgN/A
8:20 am28 °FOvercast.1 mph93%30.33 "HgN/A
7:50 am28 °FOvercast.2 mph93%30.33 "HgN/A
7:20 am28 °FLight snow. Overcast.1 mph86%30.33 "Hg6 mi
6:50 am28 °FLight snow. Overcast.2 mph86%30.33 "Hg6 mi
6:20 am28 °FLight snow. Overcast.3 mph86%30.30 "Hg5 mi
5:50 am28 °FLight snow. Overcast.3 mph86%30.30 "Hg4 mi
5:20 am28 °FLight snow. Overcast.3 mph86%30.30 "Hg4 mi
4:50 am28 °FLight snow. Overcast.5 mph86%30.30 "Hg5 mi
4:20 am28 °FLight snow. Overcast.3 mph86%30.30 "Hg5 mi
3:50 am28 °FLight snow. Passing clouds.3 mph86%30.30 "Hg4 mi
3:20 am28 °FLight snow. Passing clouds.3 mph86%30.30 "Hg4 mi
2:50 am28 °FLight snow. Passing clouds.2 mph86%30.33 "Hg4 mi
2:20 am28 °FLight snow. Passing clouds.2 mph86%30.33 "Hg4 mi
1:50 am28 °FLight snow. Passing clouds.1 mph86%30.33 "Hg4 mi
1:20 am28 °FLight snow. Low clouds.1 mph86%30.33 "Hg6 mi
12:50 am28 °FLight snow. Passing clouds.2 mph86%30.33 "HgN/A
12:20 am28 °FLight snow. Passing clouds.1 mph86%30.33 "HgN/A
11:50 pm
Mon, Jan 23
28 °FPassing clouds.2 mph86%30.33 "HgN/A
11:20 pm28 °FLow clouds.5 mph86%30.33 "Hg6 mi
10:50 pm28 °FLow clouds.2 mph86%30.33 "Hg6 mi
10:20 pm28 °FLow clouds.3 mph86%30.33 "HgN/A
Weather by CustomWeather, © 2017

See weather overviewHow to use our weather pages